Regional Weather Roundup
Issued by NWS Cleveland, OH

Home | Current Version | Previous Version | Text Only | Print | Product List | Glossary Off
Versions: 1 2 3 4 5 6 7 8 9 10 11 12 13 14 15 16 17 18 19 20 21 22 23 24 25 26 27 28 29 30 31 32 33 34 35 36 37 38 39 40 41 42 43 44 45 46 47 48 49 50

000
ASUS41 KCLE 291302
RWRCLE
OHIO REGIONAL WEATHER ROUNDUP
NATIONAL WEATHER SERVICE CLEVELAND, OH
900 AM EDT FRI AUG 29 2014

NOTE: "FAIR" INDICATES FEW OR NO CLOUDS BELOW 12,000 FEET WITH NO
SIGNIFICANT WEATHER AND/OR OBSTRUCTIONS TO VISIBILITY.

OHZ001>008-015>018-024>027-034-035-043-044-291400-
   NORTHWEST OHIO

CITY           SKY/WX    TMP DP  RH WIND       PRES   REMARKS
DEFIANCE       MOSUNNY   63  54  72 SE5       30.13R
FINDLAY        PTSUNNY   62  54  74 SE10      30.13R
TOLEDO EXPRESS PTSUNNY   61  53  75 VRB5      30.14S
TOLEDO EXEC    MOSUNNY   61  53  75 SE7       30.15S
LIMA           PTSUNNY   66  55  67 SE9       30.12S
$$

OHZ009>014-019>023-028>033-038-089-291400-
   NORTHEAST OHIO

CITY           SKY/WX    TMP DP  RH WIND       PRES   REMARKS
CLE-HOPKINS    MOSUNNY   59  52  77 SE5       30.19S
CLE-LAKEFRONT  SUNNY     62  49  62 SE13      30.15F
CUY CO. ARPT   PTSUNNY   61  54  77 SE12      30.18S
LORAIN-ELYRIA  SUNNY     61  53  75 SE8       30.17S
ASHTABULA      MOSUNNY   59  54  83 SE6       30.20R
AKRON-CANTON   MOSUNNY   60  50  69 SE8       30.18R
WOOSTER        SUNNY     59  54  83 SE5       30.18S
MANSFIELD      MOSUNNY   62  52  69 SE12      30.16S
YOUNGSTOWN     PTSUNNY   57  51  80 E8        30.19R
$$

OHZ042-051>053-060>062-070>072-077>081-291400-
  SOUTHWEST OHIO

CITY           SKY/WX    TMP DP  RH WIND       PRES   REMARKS
CINC-COVINGTON MOSUNNY   70  60  70 SE6       30.10R
CINC-LUNKEN    SUNNY     70  61  73 CALM      30.10S
HAMILTON       SUNNY     69  60  73 E8        30.11S
DAYTON         MOSUNNY   68  57  68 SE9       30.12S
WRIGHT-PAT AFB SUNNY     67  58  71 E8        30.12S
DAYTON GENERAL SUNNY     66  58  75 SE9       30.11R
WILMINGTON     SUNNY     64  58  80 E9        30.12S
$$

OHZ036-037-039>041-045>050-054>059-063>069-073>076-082>088-291400-
  CENTRAL AND SOUTHEAST OHIO

CITY           SKY/WX    TMP DP  RH WIND       PRES   REMARKS
COLUMBUS       MOSUNNY   67  53  61 SE7       30.13F
OSU AIRPORT    SUNNY     65  54  67 SE9       30.14S
BOLTON FIELD   SUNNY     64  57  77 E6        30.14S
RICKENBACK AFB SUNNY     65  53  65 E5        30.13F
NEWARK         SUNNY     63  55  75 CALM      30.14F
MARION         SUNNY     62  54  74 S10       30.15R
LANCASTER      SUNNY     64  55  72 SE9       30.14F
ZANESVILLE     SUNNY     61  53  75 SE3       30.15S
NEW PHILLY     SUNNY     56  54  93 CALM      30.18S
$$



USA.gov is the U.S. government's official web portal to all federal, state and local government web resources and services.